When you browse on this site, cookies collect data to enhance your experience and personalize the content and advertising you see.
Visit our Privacy Policy to learn more. By continuing to use the site, you agree to this use of cookies and data.
  • In Austria
  • List of Countries
  • For 7 days
  • Water Temperature
  • Satellite Maps
  • Weather Map
  • News
  • Weather Widgets
  • user-avatar
    Login

    Hourly Weather Rangpur

    Today, 22 April, Monday

    Time Temperature Precipitation Wind Pressure Humidity
    00:00 +29°C° 0 mm 3 mps 752 mmHg 47%
    01:00 +29°C° 0.1 mm 3 mps 752 mmHg 49%
    02:00 +28°C° 0.1 mm 3 mps 752 mmHg 51%
    03:00 +28°C° 0.1 mm 2 mps 752 mmHg 52%
    04:00 +28°C° 0.1 mm 3 mps 752 mmHg 54%
    05:00 +27°C° 0.1 mm 3 mps 752 mmHg 56%
    06:00 +26°C° 0 mm 4 mps 752 mmHg 65%
    07:00 +28°C° 0.2 mm 4 mps 752 mmHg 60%
    08:00 +29°C° 0.2 mm 5 mps 753 mmHg 55%
    09:00 +32°C° 0.2 mm 5 mps 753 mmHg 50%
    10:00 +33°C° 0 mm 5 mps 753 mmHg 46%
    11:00 +35°C° 0 mm 4 mps 752 mmHg 42%
    12:00 +36°C° 0 mm 4 mps 752 mmHg 38%
    13:00 +37°C° 0 mm 3 mps 752 mmHg 35%
    14:00 +38°C° 0 mm 2 mps 751 mmHg 33%
    15:00 +37°C° 0 mm 1 mps 751 mmHg 30%
    16:00 +37°C° 0 mm 1 mps 751 mmHg 32%
    17:00 +36°C° 0 mm 1 mps 751 mmHg 33%
    18:00 +36°C° 0 mm 1 mps 750 mmHg 35%
    19:00 +35°C° 0 mm 2 mps 751 mmHg 37%
    20:00 +34°C° 0 mm 3 mps 751 mmHg 40%
    21:00 +33°C° 0 mm 4 mps 752 mmHg 42%
    22:00 +32°C° 0 mm 5 mps 752 mmHg 47%
    23:00 +30°C° 0 mm 5 mps 752 mmHg 51%

    Tomorrow, 23 April, Tuesday

    Time Temperature Precipitation Wind Pressure Humidity
    00:00 +29°C° 0 mm 5 mps 753 mmHg 55%
    01:00 +29°C° 0.2 mm 6 mps 752 mmHg 57%
    02:00 +28°C° 0.2 mm 6 mps 752 mmHg 60%
    03:00 +27°C° 0.2 mm 6 mps 752 mmHg 62%
    04:00 +27°C° 0.4 mm 5 mps 752 mmHg 64%
    05:00 +26°C° 0.4 mm 5 mps 752 mmHg 67%
    06:00 +26°C° 0.4 mm 4 mps 753 mmHg 69%
    07:00 +27°C° 0.2 mm 4 mps 753 mmHg 64%
    08:00 +29°C° 0.2 mm 5 mps 754 mmHg 59%
    09:00 +30°C° 0.2 mm 5 mps 755 mmHg 55%
    10:00 +33°C° 0 mm 5 mps 754 mmHg 49%
    11:00 +35°C° 0 mm 4 mps 754 mmHg 43%
    12:00 +37°C° 0 mm 4 mps 754 mmHg 37%
    13:00 +37°C° 0 mm 3 mps 754 mmHg 35%
    14:00 +38°C° 0 mm 2 mps 753 mmHg 33%
    15:00 +39°C° 0 mm 1 mps 752 mmHg 31%
    16:00 +37°C° 0 mm 1 mps 752 mmHg 33%
    17:00 +37°C° 0 mm 1 mps 751 mmHg 34%
    18:00 +36°C° 0 mm 1 mps 751 mmHg 36%
    19:00 +36°C° 0.4 mm 2 mps 752 mmHg 40%
    20:00 +34°C° 0.4 mm 2 mps 753 mmHg 44%
    21:00 +32°C° 0.4 mm 2 mps 753 mmHg 49%
    22:00 +31°C° 0.2 mm 2 mps 754 mmHg 51%
    23:00 +31°C° 0.2 mm 2 mps 754 mmHg 53%

    Day after tomorrow, 24 April, Wednesday

    Time Temperature Precipitation Wind Pressure Humidity
    00:00 +30°C° 0.2 mm 1 mps 754 mmHg 55%
    01:00 +29°C° 0.3 mm 2 mps 753 mmHg 57%
    02:00 +29°C° 0.3 mm 2 mps 753 mmHg 60%
    03:00 +28°C° 0.3 mm 3 mps 753 mmHg 62%
    04:00 +28°C° 0.1 mm 3 mps 753 mmHg 62%
    05:00 +28°C° 0.1 mm 3 mps 753 mmHg 62%
    06:00 +27°C° 0.1 mm 3 mps 753 mmHg 62%
    07:00 +29°C° 0 mm 3 mps 754 mmHg 56%
    08:00 +31°C° 0 mm 3 mps 754 mmHg 51%
    09:00 +34°C° 0 mm 4 mps 755 mmHg 45%
    10:00 +35°C° 0 mm 3 mps 755 mmHg 41%
    11:00 +37°C° 0 mm 3 mps 755 mmHg 38%
    12:00 +38°C° 0 mm 2 mps 754 mmHg 34%
    13:00 +39°C° 0 mm 2 mps 753 mmHg 32%
    14:00 +39°C° 0 mm 1 mps 752 mmHg 31%
    15:00 +40°C° 0 mm 1 mps 752 mmHg 29%
    16:00 +39°C° 0 mm 1 mps 751 mmHg 32%
    17:00 +36°C° 0 mm 0 mps 751 mmHg 34%
    18:00 +35°C° 0 mm 0 mps 751 mmHg 36%
    19:00 +36°C° 0 mm 1 mps 751 mmHg 37%
    20:00 +35°C° 0 mm 1 mps 752 mmHg 38%
    21:00 +35°C° 0 mm 2 mps 752 mmHg 39%
    22:00 +35°C° 0 mm 2 mps 752 mmHg 41%
    23:00 +34°C° 0 mm 2 mps 752 mmHg 43%

    25 April, Thursday

    Time Temperature Precipitation Wind Pressure Humidity
    00:00 +33°C° 0 mm 3 mps 752 mmHg 45%
    01:00 +32°C° 0 mm 2 mps 752 mmHg 47%
    02:00 +31°C° 0 mm 2 mps 752 mmHg 49%
    03:00 +30°C° 0 mm 2 mps 751 mmHg 50%
    04:00 +30°C° 0 mm 2 mps 752 mmHg 52%
    05:00 +30°C° 0 mm 2 mps 752 mmHg 53%
    06:00 +30°C° 0 mm 2 mps 752 mmHg 55%
    07:00 +31°C° 0 mm 2 mps 753 mmHg 50%
    08:00 +34°C° 0 mm 3 mps 753 mmHg 46%
    09:00 +36°C° 0 mm 3 mps 754 mmHg 42%
    10:00 +37°C° 0 mm 3 mps 754 mmHg 39%
    11:00 +38°C° 0 mm 2 mps 753 mmHg 37%
    12:00 +39°C° 0 mm 2 mps 753 mmHg 34%
    13:00 +40°C° 0 mm 2 mps 752 mmHg 33%
    14:00 +41°C° 0 mm 2 mps 751 mmHg 31%
    15:00 +41°C° 0 mm 2 mps 750 mmHg 29%
    16:00 +41°C° 0 mm 1 mps 750 mmHg 31%
    17:00 +40°C° 0 mm 1 mps 749 mmHg 33%
    18:00 +40°C° 0 mm 1 mps 749 mmHg 35%
    19:00 +39°C° 0 mm 1 mps 750 mmHg 36%
    20:00 +37°C° 0 mm 1 mps 750 mmHg 37%
    21:00 +37°C° 0 mm 2 mps 751 mmHg 38%
    22:00 +36°C° 0 mm 2 mps 751 mmHg 40%
    23:00 +35°C° 0 mm 2 mps 751 mmHg 43%

    26 April, Friday

    Time Temperature Precipitation Wind Pressure Humidity
    00:00 +34°C° 0 mm 3 mps 751 mmHg 46%
    01:00 +34°C° 0.1 mm 2 mps 751 mmHg 48%
    02:00 +32°C° 0.1 mm 2 mps 750 mmHg 51%
    03:00 +32°C° 0.1 mm 2 mps 750 mmHg 53%
    04:00 +31°C° 0 mm 2 mps 750 mmHg 55%
    05:00 +31°C° 0 mm 3 mps 751 mmHg 57%
    06:00 +30°C° 0 mm 3 mps 751 mmHg 59%
    07:00 +33°C° 0 mm 3 mps 751 mmHg 56%
    08:00 +34°C° 0 mm 3 mps 752 mmHg 52%
    09:00 +35°C° 0 mm 3 mps 753 mmHg 49%
    10:00 +35°C° 0 mm 3 mps 752 mmHg 49%
    11:00 +35°C° 0 mm 2 mps 752 mmHg 49%
    12:00 +35°C° 0 mm 2 mps 751 mmHg 49%
    13:00 +37°C° 0 mm 2 mps 751 mmHg 43%
    14:00 +39°C° 0 mm 2 mps 750 mmHg 36%
    15:00 +41°C° 0 mm 2 mps 749 mmHg 30%
    16:00 +40°C° 0 mm 2 mps 749 mmHg 32%
    17:00 +39°C° 0 mm 2 mps 749 mmHg 34%
    18:00 +39°C° 0 mm 3 mps 749 mmHg 36%
    19:00 +37°C° 0 mm 3 mps 749 mmHg 40%
    20:00 +36°C° 0 mm 3 mps 750 mmHg 43%
    21:00 +35°C° 0 mm 4 mps 750 mmHg 46%
    22:00 +35°C° 0 mm 4 mps 750 mmHg 47%
    23:00 +34°C° 0 mm 4 mps 750 mmHg 47%

    27 April, Saturday

    Time Temperature Precipitation Wind Pressure Humidity
    00:00 +34°C° 0 mm 4 mps 750 mmHg 48%
    01:00 +33°C° 0 mm 3 mps 750 mmHg 49%
    02:00 +33°C° 0 mm 3 mps 749 mmHg 50%
    03:00 +31°C° 0 mm 2 mps 749 mmHg 51%
    04:00 +31°C° 0 mm 2 mps 749 mmHg 54%
    05:00 +31°C° 0 mm 2 mps 750 mmHg 57%
    06:00 +31°C° 0 mm 3 mps 750 mmHg 61%
    07:00 +33°C° 0.2 mm 3 mps 751 mmHg 58%
    08:00 +34°C° 0.2 mm 4 mps 751 mmHg 55%
    09:00 +36°C° 0.2 mm 4 mps 752 mmHg 52%
    10:00 +37°C° 0.1 mm 4 mps 752 mmHg 48%
    11:00 +38°C° 0.1 mm 4 mps 751 mmHg 45%
    12:00 +40°C° 0.1 mm 4 mps 751 mmHg 41%
    13:00 +41°C° 0 mm 4 mps 750 mmHg 39%
    14:00 +42°C° 0 mm 3 mps 749 mmHg 36%
    15:00 +43°C° 0 mm 3 mps 748 mmHg 34%
    16:00 +42°C° 0 mm 3 mps 748 mmHg 35%
    17:00 +42°C° 0 mm 3 mps 748 mmHg 37%
    18:00 +40°C° 0 mm 2 mps 747 mmHg 39%
    19:00 +39°C° 0 mm 3 mps 748 mmHg 42%
    20:00 +37°C° 0 mm 4 mps 748 mmHg 45%
    21:00 +36°C° 0 mm 4 mps 749 mmHg 48%
    22:00 +35°C° 0 mm 5 mps 749 mmHg 50%
    23:00 +35°C° 0 mm 5 mps 749 mmHg 52%
    Show more